Вернуться в каталог

KUIPER-00183

АктивенСвязьLEO
NORAD 67138·PAYLOAD·🇺🇸 United States

Запущен Dec 15, 2025 с Cape Canaveral Space Force Station

Loading…

Ближайшие Пролёты (ближайшие 24 часа)

TLE

СвежийSource: CelesTrak SupGP

Эпоха: Sep 15, 2026, 05:28 UTC

1 67138C 25301F   26258.22824074 -.00002850  00000+0 -37311-3 0  2580
2 67138  51.9011 290.0088 0000426  64.9533 263.6652 14.79926908    19

Отслеживайте KUIPER-00183 в реальном времени с AllMySat

Download on the App Store